Location: A�t �Alizem
(31.2076°N, 8.7872°W)
Time: 21:40:13
(UTC+00:00)

N. Korean satellite - Pass Details

Date: 19 September 2021
Orbit: 450 x 495 km, 97.3° (Epoch: 23 October)

Event Time Altitude Azimuth Distance (km) Brightness Sun altitude
Rises 04:50:40 0° 36° (NE) 2,511 11.0 -20.1°
Reaches altitude 10° 04:53:36 10° 64° (ENE) 1,640 10.4 -19.5°
Maximum altitude 04:55:23 13° 95° (E) 1,445 10.0 -19.1°
Drops below altitude 10° 04:57:11 10° 126° (SE) 1,648 9.8 -18.7°
Sets 05:00:08 0° 153° (SSE) 2,533 10.4 -18.1°
